Kosmos-1389

operational
NORAD ID: 13376 Int'l Des: 1982-073 Owner: GUKOS Country: SU
LEOCIRCULAR

About Kosmos-1389

Description loading...

Live Position

Loading 3D Globe...

Upcoming Passes

Altitude History

Altitude vs Time

uPlot chart will show altitude changes over time

Two-Line Element Set

1 13376U 82073B 26102.51494399 -.00000030 00000-0 -83322-4 0 9992
2 13376 74.0158 191.1177 0041945 4.9665 6.2868 12.55403427 3913
Epoch: Apr 12, 2026 • Age: 4 hours

Current Status

Altitude 1417.3 km
Velocity 7.17 km/s
Sub-Earth Point -16.23°S, 104.75°E
Launch Date Jul 21, 1982
Age 43.7 years
Type other

Technical Details

Classification Payload
Mass 60.00 kg
Dry Mass 60.00 kg
Total Mass 60.00 kg
Length 0.80 m
Diameter 0.80 m
Span 0.80 m
Shape Poly
Manufacturer NPOPM
Bus Type Strela-1 11F625
Phase Status In Orbit
Owner/State GUKOS/SU

Large Constellations

Loading constellations...